Fort Patrick Henry Observed Data For Previous 48 Hours

Caption
Day and Hour Reservoir Elevation (behind dam)* Tailwater Elevation (below dam)* Average Hourly Discharge*
9/21/2017 2 AM EDT 1,259.59 1,187.95 2,548
9/21/2017 3 AM EDT 1,259.56 1,186.63 0
9/21/2017 4 AM EDT 1,259.44 1,191.22 288
9/21/2017 5 AM EDT 1,259.66 1,187.93 2,523
9/21/2017 6 AM EDT 1,259.93 1,186.62 0
9/21/2017 7 AM EDT 1,260.12 1,191.27 293
9/21/2017 8 AM EDT 1,260.35 1,187.92 2,510
9/21/2017 9 AM EDT 1,260.23 1,186.62 0
9/21/2017 10 AM EDT 1,260.07 1,191.22 288
9/21/2017 11 AM EDT 1,260.05 1,188.00 2,545
9/21/2017 12 PM EDT 1,260.01 1,186.62 0
9/21/2017 1 PM EDT 1,259.89 1,191.27 293
9/21/2017 2 PM EDT 1,259.82 1,187.92 2,518
9/21/2017 3 PM EDT 1,259.75 1,186.62 0
9/21/2017 4 PM EDT 1,259.96 1,191.28 296
9/21/2017 5 PM EDT 1,260.01 1,192.52 3,429
9/21/2017 6 PM EDT 1,259.95 1,192.60 3,424
9/21/2017 7 PM EDT 1,259.91 1,192.57 3,428
9/21/2017 8 PM EDT 1,259.88 1,192.63 3,435
9/21/2017 9 PM EDT 1,259.92 1,192.65 3,425
9/21/2017 10 PM EDT 1,259.91 1,192.65 3,466
9/21/2017 11 PM EDT 1,259.94 1,192.68 3,511
9/22/2017 12 AM EDT 1,259.85 1,186.86 107
9/22/2017 1 AM EDT 1,259.77 1,191.33 312
9/22/2017 2 AM EDT 1,259.72 1,188.01 2,544
9/22/2017 3 AM EDT 1,259.68 1,186.64 0
9/22/2017 4 AM EDT 1,259.56 1,191.27 282
9/22/2017 5 AM EDT 1,259.76 1,187.90 2,561
9/22/2017 6 AM EDT 1,260.05 1,186.63 0
9/22/2017 7 AM EDT 1,260.28 1,191.16 254
9/22/2017 8 AM EDT 1,260.51 1,187.91 2,516
9/22/2017 9 AM EDT 1,260.83 1,186.63 0
9/22/2017 10 AM EDT 1,260.62 1,191.10 248
9/22/2017 11 AM EDT 1,260.53 1,187.91 2,526
9/22/2017 12 PM EDT 1,260.58 1,186.62 0
9/22/2017 1 PM EDT 1,260.44 1,191.22 263
9/22/2017 2 PM EDT 1,260.23 1,192.67 3,472
9/22/2017 3 PM EDT 1,259.88 1,192.67 3,509
9/22/2017 4 PM EDT 1,259.53 1,192.70 3,524
9/22/2017 5 PM EDT 1,259.52 1,192.72 3,527
9/22/2017 6 PM EDT 1,259.53 1,192.70 3,524
9/22/2017 7 PM EDT 1,259.79 1,186.86 116
9/22/2017 8 PM EDT 1,259.98 1,191.28 295
9/22/2017 9 PM EDT 1,260.22 1,187.92 2,516
9/22/2017 10 PM EDT 1,260.48 1,186.63 0
9/22/2017 11 PM EDT 1,260.35 1,191.30 294
9/23/2017 12 AM EDT 1,260.26 1,187.92 2,546
9/23/2017 1 AM EDT 1,260.28 1,186.62 0
9/23/2017 2 AM EDT 1,260.15 1,191.26 294
9/23/2017 3 AM EDT 1,260.09 1,188.03 2,561

Elevations are in feet above sea level. Discharges are in cubic feet per second and are reported at the end of the hour.